Regional Weather Roundup
Issued by NWS

Home | Current Version | Previous Version | Graphics & Text | Print | Product List | Glossary On
Versions: 1 2 3 4 5 6 7 8 9 10 11 12 13 14 15 16 17 18 19 20 21 22 23 24 25 26 27 28 29 30 31 32 33 34 35 36 37 38 39 40 41 42 43 44 45 46 47 48 49 50
118
ASUS44 KMEG 040400
RWRTN
TENNESSEE HOURLY STATE WEATHER ROUNDUP
NATIONAL WEATHER SERVICE MEMPHIS TN
1100 PM CDT TUE MAY 03 2016

TNZ002-004-019-021-049-052-054-088>092-040500-
WEST TENNESSEE

CITY           SKY/WX    TMP DP  RH WIND       PRES   REMARKS
MEMPHIS INTL   CLEAR     54  49  83 CALM      29.97S
NWS MEMPHIS      N/A     52 N/A N/A MISG        N/A
JACKSON        CLEAR     51  49  92 CALM      29.96F
DYERSBURG      MOCLDY    54  50  87 E5        29.96S
UNION CITY     MOCLDY    52  52 100 CALM      29.94F
LEXINGTON      PTCLDY    54  52  94 CALM      29.94S
$$

TNZ008-025-027-028-033-062-065-066-040500-
NORTH MIDDLE TENNESSEE

CITY           SKY/WX    TMP DP  RH WIND       PRES   REMARKS
NASHVILLE      CLOUDY    57  47  69 W3        29.93F
CLARKSVILLE    CLEAR     51  47  86 W5        29.93F
COOKEVILLE     CLOUDY    55  52  88 CALM      29.90F
CROSSVILLE     CLOUDY    56  46  69 W3        29.92F
$$

TNZ061-075-076-078-094-096-097-040500-
SOUTH MIDDLE TENNESSEE

CITY           SKY/WX    TMP DP  RH WIND       PRES   REMARKS
TULLAHOMA      MOCLDY    54  48  82 NW7       29.93F
WINCHESTER     CLOUDY    57  46  67 N5        29.93S
MCMINNVILLE    CLOUDY    55  48  76 CALM      29.92F
COLUMBIA       MOCLDY    55  55 100 CALM      29.92F
SHELBYVILLE    CLOUDY    57  50  77 W3        29.94S
$$

TNZ017-018-042-046-047-040500-
NORTHEAST TENNESSEE

CITY           SKY/WX    TMP DP  RH WIND       PRES   REMARKS
TRI CITIES     CLOUDY    58  46  64 N3        29.86S
$$

TNZ012-013-036-069-073-074-040500-
CENTRAL EAST TENNESSEE

CITY           SKY/WX    TMP DP  RH WIND       PRES   REMARKS
KNOXVILLE      MOCLDY    60  49  66 W5        29.87F
OAK RIDGE      CLOUDY    58  47  66 CALM      29.89F
GATLINBURG     CLOUDY    57  46  67 NW7       29.87F
$$

TNZ083-085-099-040500-
SOUTHEAST TENNESSEE

CITY           SKY/WX    TMP DP  RH WIND       PRES   REMARKS
CHATTANOOGA    MOCLDY    61  48  62 NW10      29.89F
$$

SKY/WX REPORTED AS FAIR MEANS FEW OR NO CLOUDS BELOW
12 THOUSAND FEET.





USA.gov is the U.S. government's official web portal to all federal, state and local government web resources and services.